Dewpoint
40 33 32 25 22 17 12 24 33 35 36 37 39 36 40 47 49 46 52 56 61 63 65 67 69 69 68 68 70 69 70 69 68 68 67 67 67 66 65 65 65 64 64 65 65 65 66 65 65
33 32 21 22 18 14 15 28 29 34 35 31 33 33 40 44 49 49 51 57 61 64 65 68 69 69 69 69 69 69 69 68 68 68 68 67 67 66 65 64 64 64 63 63 63 63 66 66 65
42 31 18 17 15 11 21 26 34 32 30 31 33 43 41 43 46 48 53 57 63 66 68 70 70 69 70 70 70 69 69 69 69 68 68 66 65 64 63 64 64 63 62 63 63 63 62 63 64
29 21 16 12 10 18 23 32 31 31 35 34 35 40 43 45 46 48 52 54 56 65 68 69 69 70 70 70 70 70 69 69 69 68 67 66 65 64 63 63 62 61 60 61 61 62 63 64 65
29 21 12 13 19 24 29 30 29 30 31 31 31 41 46 48 46 46 47 50 52 62 66 68 68 69 69 68 68 68 68 68 67 67 66 65 64 63 62 61 61 60 59 59 58 59 59 60 61
18 14 12 12 21 25 27 27 29 33 32 28 31 40 47 47 45 45 44 45 48 56 62 63 67 67 67 67 67 67 66 66 66 66 64 64 63 62 62 61 60 60 59 58 58 57 57 58 59
21 18 14 18 21 25 29 31 25 23 26 26 30 40 45 46 47 44 43 43 49 51 53 57 62 63 64 65 66 66 66 65 65 64 64 64 63 61 61 60 59 58 58 57 56 56 56 55 57
16 14 12 21 19 21 23 22 22 22 26 25 26 34 40 47 47 44 42 41 46 51 53 55 58 59 61 63 64 65 65 64 63 63 62 63 62 60 59 59 58 58 57 56 55 55 54 54 54
11 9 14 12 14 12 13 9 13 12 25 23 31 32 44 47 47 44 42 41 44 50 53 54 54 54 60 60 61 63 63 63 62 62 61 61 61 61 59 57 58 57 57 57 56 54 53 53 54
8 7 6 4 4 5 4 5 4 9 20 19 28 41 49 49 47 44 42 41 45 50 52 57 55 55 52 51 59 61 59 61 61 60 60 60 57 57 55 58 59 58 58 58 58 57 56 56 55
7 5 3 2 5 3 1 2 2 10 12 14 24 32 47 49 47 44 41 41 46 50 51 58 58 56 54 52 53 54 55 55 58 59 58 57 56 57 57 60 61 61 60 60 58 58 57 54 53
6 4 3 3 3 1 -2 1 0 4 8 14 23 28 44 44 44 44 42 42 45 49 50 59 58 56 54 55 52 53 54 52 54 55 56 56 55 56 53 53 49 49 49 49 51 50 51 51 49
7 4 4 4 6 8 11 7 11 5 10 14 21 34 41 43 44 44 44 43 44 47 49 56 56 55 57 54 56 56 54 55 54 54 54 54 54 54 53 51 49 48 48 47 48 48 48 49 45
7 6 6 8 13 13 11 11 15 13 10 11 20 32 38 42 43 44 44 43 44 46 51 57 57 54 52 54 55 56 54 54 55 51 49 51 52 52 52 50 50 48 48 48 47 47 48 49 47
11 11 13 14 17 15 14 15 12 16 14 13 15 21 32 38 40 41 42 43 43 43 48 59 60 54 51 52 54 53 46 45 47 47 48 48 49 50 51 50 49 50 50 49 48 49 48 48 48
10 12 12 15 16 19 16 15 13 16 16 15 15 16 20 32 35 39 42 42 42 45 54 62 59 53 49 52 49 47 49 48 47 48 48 48 49 49 50 50 50 50 52 50 50 49 48 47 47
13 10 13 17 16 18 16 17 15 18 20 18 18 19 18 21 34 36 40 41 42 43 50 57 54 51 48 49 48 47 47 47 46 43 47 46 45 49 48 48 50 51 50 50 50 49 49 48 48
12 7 6 6 15 11 10 12 18 20 20 19 19 18 21 21 27 36 37 39 41 43 44 52 52 52 50 49 48 45 44 44 45 45 45 46 46 46 46 46 48 50 49 47 48 50 48 47 47
10 7 7 14 17 15 12 15 18 21 21 22 21 22 22 27 39 43 43 43 44 46 45 51 51 49 46 45 43 43 43 42 43 43 43 42 45 43 44 43 44 43 44 45 45 45 43 43 46
13 12 12 15 17 14 16 14 19 22 24 24 23 26 32 36 37 39 42 45 49 49 50 50 47 43 42 42 43 43 43 42 42 44 43 44 43 42 40 41 42 43 43 42 44 45 43 41 41
17 16 23 20 20 19 15 17 19 22 24 25 27 29 31 33 36 39 43 45 46 45 43 42 41 41 42 42 41 40 40 40 41 42 42 43 43 40 40 39 41 42 41 40 41 42 41 41 40
19 26 23 20 18 15 15 12 19 21 24 26 28 30 29 30 32 36 41 43 43 43 43 41 40 39 41 41 41 40 39 40 42 45 45 45 41 40 37 37 40 41 41 40 42 40 42 41 39
24 26 23 22 20 18 16 17 21 21 22 26 29 30 32 34 35 36 39 41 42 43 43 42 40 39 40 40 40 41 44 45 45 44 42 39 39 37 36 36 38 40 39 40 42 40 42 42 40
27 26 24 24 23 21 18 19 25 22 24 27 30 32 33 34 35 36 38 41 42 43 42 41 39 38 40 41 43 41 39 39 39 39 38 37 36 35 36 37 38 39 39 38 41 42 41 40 40
24 24 23 25 21 21 23 18 26 26 28 28 30 32 35 36 36 36 37 38 39 40 40 41 42 40 40 39 39 39 40 40 38 38 37 35 35 36 35 37 37 38 38 39 39 39 41 39 39
25 24 27 21 24 22 19 13 24 28 29 29 30 31 33 35 36 36 37 38 38 39 40 42 41 40 40 41 40 41 40 38 38 38 35 35 35 36 35 38 38 38 38 39 39 38 38 38 39
26 24 22 26 29 24 16 24 27 27 28 28 29 30 32 33 35 35 35 37 38 39 40 41 41 41 41 42 41 39 38 38 37 35 36 35 37 35 36 38 38 37 38 38 37 37 36 37 37
25 24 23 25 20 15 13 17 26 26 27 27 27 28 29 33 34 35 36 37 38 39 41 42 41 41 40 38 36 36 36 36 36 35 35 36 36 35 36 37 38 37 37 37 36 37 36 35 35
26 25 24 20 22 19 18 17 22 25 26 26 28 29 30 32 33 35 36 38 38 39 39 41 40 39 39 38 36 35 35 34 34 34 35 35 34 34 34 34 34 35 35 37 37 36 35 32 30
26 24 22 23 20 23 24 20 27 28 31 30 30 32 33 36 36 36 38 38 37 38 39 40 40 40 39 38 36 34 33 32 32 33 31 31 31 33 32 31 30 31 31 33 32 34 33 31 30
Wind_Speed
11 12 11 8 5 10 20 4 16 10 8 14 17 15 23 22 12 12 18 14 26 23 19 16 15 13 13 13 15 17 18 16 16 15 15 13 12 12 13 13 14 14 15 15 14 14 14 14 13
9 14 7 6 9 18 7 11 14 20 17 11 12 5 21 21 20 19 17 18 24 22 21 17 14 13 13 14 15 17 16 15 14 13 12 12 11 12 12 12 12 14 14 13 13 11 11 11 12
9 11 5 6 16 23 10 11 20 15 10 11 6 23 17 17 24 15 17 17 30 24 21 18 17 14 13 16 15 14 15 15 13 12 12 11 11 12 13 13 13 13 12 14 13 12 11 11 12
8 6 7 11 20 14 20 20 18 11 5 4 18 16 19 18 19 19 18 18 18 24 21 18 18 17 16 16 16 15 14 14 13 13 12 12 12 12 13 12 13 12 13 13 12 12 12 12 11
10 6 13 16 7 13 17 16 10 9 8 8 4 22 21 22 21 18 16 17 19 22 19 16 17 16 15 16 16 15 14 13 13 13 11 11 11 10 11 11 10 10 11 10 10 9 10 10 10
10 5 12 22 14 12 13 7 5 19 14 9 8 19 19 19 19 16 16 17 18 21 18 17 16 16 15 15 14 13 14 13 12 11 10 9 8 8 9 9 9 10 10 9 9 9 9 10 10
15 13 22 12 12 10 9 5 3 2 6 6 8 20 16 18 16 15 14 16 17 15 18 16 14 14 14 14 13 13 12 11 11 9 7 6 7 7 8 8 7 7 7 7 6 6 7 7 7
17 17 23 10 9 12 9 3 6 3 17 13 7 4 17 21 14 14 15 12 15 14 14 16 17 16 16 13 13 11 10 10 9 8 6 7 6 8 10 9 5 4 3 2 4 4 5 7 8
21 23 10 9 11 12 10 6 2 8 10 6 5 10 25 23 18 14 15 12 13 13 10 12 12 10 17 17 12 12 12 10 10 9 10 9 10 13 13 8 6 5 5 5 4 5 7 8 11
14 15 12 9 11 12 10 9 9 6 10 5 7 16 24 20 17 15 14 13 15 14 11 12 11 8 2 13 15 15 12 11 10 9 4 4 5 1 4 8 9 9 10 10 8 10 12 8 9
12 2 12 10 8 6 10 8 6 7 8 14 13 13 20 18 14 15 14 15 16 16 12 15 11 7 0 9 2 8 9 7 9 7 5 2 4 1 3 6 8 10 11 9 10 11 11 2 5
4 9 9 14 3 2 8 8 4 7 8 13 18 16 21 17 16 15 14 17 16 18 17 21 15 9 2 3 3 7 5 6 1 6 3 2 4 7 6 6 8 8 3 5 6 6 5 8 5
7 6 10 9 7 2 7 4 3 6 12 5 10 17 18 16 15 13 13 14 16 17 22 21 19 14 12 4 9 7 0 7 4 1 8 6 4 5 5 4 5 6 7 6 6 8 9 8 7
8 10 10 9 7 4 4 6 6 8 14 11 8 14 17 17 18 18 14 11 17 18 19 20 21 17 12 8 7 5 3 5 5 6 7 3 4 3 4 7 7 9 8 6 7 11 11 12 9
7 9 8 7 8 6 5 8 12 12 7 11 12 11 14 17 15 17 14 15 14 15 17 23 15 11 12 12 9 6 9 1 0 4 7 3 2 5 5 7 9 10 8 7 11 12 10 12 12
10 11 11 13 9 7 7 14 18 12 13 10 14 15 14 16 16 16 16 14 17 13 20 15 17 16 11 14 8 5 9 4 5 5 3 8 5 2 4 8 10 11 11 12 11 13 14 13 13
11 12 9 10 7 2 9 5 13 11 5 9 12 14 11 10 15 16 15 9 8 14 14 23 21 14 12 13 8 6 7 5 5 7 7 12 11 8 11 11 14 14 14 14 15 16 16 14 13
14 11 6 5 10 6 10 10 10 4 7 13 15 14 16 15 11 18 18 13 3 4 7 14 17 23 14 12 8 2 5 6 1 7 11 11 9 12 12 13 15 15 14 14 14 16 16 17 18
10 8 8 15 7 3 10 9 11 7 4 4 3 7 6 12 18 23 16 15 11 11 8 21 17 16 5 4 6 12 13 11 11 11 13 10 12 15 15 15 14 16 16 15 16 16 19 18 16
6 6 7 5 6 6 9 11 13 6 10 13 9 9 14 17 18 17 14 13 17 20 19 14 13 12 14 12 10 6 4 4 6 11 16 14 13 15 16 15 13 11 14 16 17 17 15 17 17
4 6 9 8 9 10 12 7 16 12 10 12 16 18 17 16 16 15 17 17 17 19 18 20 18 15 15 12 14 11 11 13 11 11 11 13 17 13 14 12 12 11 12 14 17 16 17 15 16
4 6 5 8 8 9 16 4 17 17 13 13 15 15 13 12 13 15 18 15 16 17 17 15 12 10 11 10 7 3 2 3 5 6 12 16 8 12 14 15 14 13 12 15 13 14 15 14 15
6 6 6 8 10 12 12 9 19 20 16 15 13 12 12 14 15 15 14 15 14 12 11 8 7 6 4 5 2 3 7 11 10 9 9 9 12 14 16 15 15 13 14 15 15 12 11 10 10
7 10 9 9 12 6 13 2 8 4 14 14 11 9 9 10 9 10 11 14 12 9 7 5 7 3 5 7 2 7 6 7 9 10 11 13 12 13 12 14 14 13 13 14 11 10 11 9 8
10 11 6 4 7 4 6 2 13 13 13 14 10 11 9 7 7 5 8 10 7 4 2 4 12 14 13 2 3 6 6 11 12 13 12 14 13 11 14 14 14 12 12 9 9 10 4 3 4
6 7 4 4 6 5 2 4 11 16 12 12 11 7 7 8 5 7 7 5 7 8 10 9 8 14 15 11 10 10 14 12 12 13 12 10 10 11 14 16 17 14 13 12 13 11 10 9 11
8 8 4 1 2 2 7 15 17 12 9 10 6 1 3 4 6 3 5 7 1 3 7 7 5 8 12 11 13 14 14 13 10 7 7 8 10 14 16 13 15 15 12 12 12 11 12 11 13
6 2 3 6 3 4 10 6 8 5 6 4 6 6 5 4 2 5 10 11 12 16 16 15 13 13 14 13 13 10 11 8 7 8 9 12 12 14 15 14 15 16 14 13 15 14 13 13 11
2 3 2 4 1 3 4 3 5 7 4 5 6 7 7 9 8 6 16 18 17 18 14 11 14 14 14 12 12 12 9 8 9 9 11 11 12 13 13 13 13 13 14 10 6 13 13 12 15
3 5 3 0 1 1 1 8 8 10 15 9 9 8 14 16 17 17 17 17 16 15 16 15 14 12 11 11 12 14 11 12 14 12 10 10 10 10 13 13 13 13 14 12 14 15 15 15 15
Wind_Direction
289 274 247 258 250 234 258 122 94 97 73 49 45 49 69 50 38 91 88 100 109 108 111 100 106 93 83 77 75 78 82 86 89 92 86 82 78 71 60 50 43 35 31 24 20 18 13 12 8
284 279 254 287 247 260 229 103 86 74 79 83 66 43 69 65 87 109 112 120 102 98 97 97 104 106 93 87 82 81 85 88 90 93 92 86 81 73 69 65 57 52 45 41 36 26 19 12 9
269 270 257 229 231 253 142 125 94 99 123 107 90 48 45 93 77 99 108 107 116 101 100 92 89 98 92 84 80 85 87 85 86 90 90 79 78 73 68 66 66 61 57 51 43 39 26 17 11
234 216 259 248 258 48 110 95 106 113 80 358 107 100 69 66 94 105 116 114 101 97 97 93 94 91 91 90 92 92 84 81 84 83 81 77 69 68 74 72 66 59 52 45 38 30 26 23 22
251 272 247 232 82 80 84 98 125 149 152 125 7 100 90 88 107 115 111 104 103 106 110 103 97 89 84 81 83 84 86 86 81 80 77 79 81 79 78 77 70 60 53 43 32 19 9 3 5
247 234 264 261 102 100 92 111 189 153 155 83 115 105 94 116 114 111 113 111 97 112 122 115 108 101 95 92 90 94 90 87 88 86 89 95 95 88 84 77 67 54 43 31 20 9 359 348 347
249 267 282 113 133 122 106 51 269 37 72 104 109 112 123 128 117 123 117 116 119 122 120 130 117 107 102 101 104 102 105 108 104 102 112 133 128 127 113 94 75 56 42 25 8 354 341 328 327
236 262 271 164 168 130 98 226 63 53 65 70 332 177 148 123 135 122 118 132 128 125 117 126 139 151 142 133 122 122 127 127 129 137 173 173 176 169 131 130 116 97 65 8 342 325 308 298 290
260 264 152 138 177 121 135 186 52 11 88 90 51 31 129 134 143 147 142 145 133 127 135 130 111 105 138 132 142 152 154 157 157 179 208 188 207 184 158 170 166 164 204 212 222 260 265 278 279
258 301 114 74 55 141 160 202 131 175 128 140 118 111 124 142 157 155 157 160 148 132 157 103 125 102 117 128 155 171 157 176 179 177 223 175 76 266 267 179 184 196 216 223 219 238 255 266 278
258 71 91 86 21 109 154 110 111 205 170 156 161 155 141 151 170 169 176 165 157 161 161 133 114 137 227 96 132 157 145 130 155 143 71 9 330 37 3 156 192 214 216 230 210 231 244 312 310
205 103 106 89 54 58 130 117 161 272 105 128 158 163 148 172 177 185 188 169 178 171 152 140 147 144 102 91 145 124 77 90 55 74 118 58 13 42 11 26 353 325 349 299 266 283 284 267 233
102 103 96 120 153 82 47 145 281 225 115 120 132 146 154 173 177 188 205 173 180 177 164 156 142 152 145 148 100 87 226 102 58 148 91 49 352 59 6 345 329 327 304 307 340 330 313 328 292
142 136 139 159 136 148 199 167 206 205 144 167 169 169 167 176 187 180 200 199 182 181 164 140 150 153 151 133 103 123 134 138 201 96 77 59 356 21 339 347 328 317 317 337 316 281 273 263 256
148 159 167 174 150 161 223 251 206 138 184 178 180 205 196 185 189 169 180 199 188 195 174 123 126 158 140 128 141 193 114 8 181 115 151 148 281 349 339 318 296 289 302 316 295 284 277 271 256
196 231 196 156 162 174 209 269 183 147 174 206 202 204 218 191 181 164 161 198 210 200 82 21 185 150 137 123 134 182 121 45 263 223 169 180 189 246 289 308 311 307 312 301 294 296 289 288 284
211 228 176 150 185 71 228 293 134 163 218 246 243 195 192 232 172 156 146 178 204 222 151 177 141 136 125 120 165 131 119 238 12 355 39 35 5 31 12 333 315 316 309 296 293 289 280 279 297
336 220 154 197 142 204 271 254 100 28 255 241 238 251 187 187 198 154 161 177 131 360 40 85 93 94 205 149 87 297 166 223 263 26 52 42 348 15 350 325 310 306 300 299 303 315 317 306 296
337 11 336 93 94 337 267 277 72 357 135 95 57 30 38 65 69 64 64 52 55 35 16 86 77 40 61 103 65 36 24 9 31 11 35 15 31 12 349 321 328 330 322 322 324 321 308 301 303
327 345 310 49 61 284 256 230 105 81 42 56 82 75 69 73 71 67 68 56 45 53 87 92 98 58 32 61 71 61 8 5 356 28 10 18 22 0 329 305 306 328 343 334 329 332 327 320 319
136 352 18 335 321 276 279 207 134 118 105 84 62 57 75 79 82 80 71 61 56 51 60 71 72 59 36 25 54 28 21 13 19 7 348 330 328 303 301 333 344 345 350 332 319 316 321 326 321
338 36 318 286 279 275 184 271 140 150 126 98 78 69 73 81 91 97 91 80 72 59 59 64 74 86 73 40 104 67 44 274 292 330 328 303 314 328 350 348 351 340 343 320 316 329 327 327 318
33 336 298 286 271 276 265 241 147 156 154 116 89 87 73 48 59 75 86 88 83 78 60 56 97 80 78 117 58 266 333 349 326 297 290 334 18 359 354 352 343 347 332 317 306 314 352 16 6
298 266 244 261 251 262 262 323 71 131 105 106 102 85 68 93 89 93 110 110 105 88 60 31 353 334 183 227 305 1 328 307 335 338 9 14 2 351 338 342 333 330 330 318 352 32 46 34 33
345 338 269 236 189 240 35 296 93 106 69 105 104 95 79 46 49 95 93 84 83 54 21 313 348 339 337 341 11 311 339 5 12 22 17 3 336 340 334 334 327 318 319 4 13 6 75 33 26
350 325 39 332 354 346 269 284 109 107 104 98 96 89 134 115 102 64 46 10 20 4 345 350 354 331 338 1 357 19 36 24 15 17 360 333 345 334 325 354 346 13 27 18 18 4 352 358 343
357 47 354 261 33 320 261 102 103 119 120 107 98 81 123 137 143 147 251 168 98 355 355 6 329 330 318 359 34 38 24 9 356 348 333 327 355 356 354 357 354 350 4 4 3 339 325 329 307
55 17 353 25 325 308 339 26 110 179 129 107 78 21 21 156 70 343 8 12 16 14 10 8 4 19 24 33 24 9 341 329 338 340 340 26 1 347 342 357 354 341 348 346 333 317 311 312 304
21 43 20 310 74 268 318 40 28 84 64 16 357 344 21 37 46 14 24 23 17 6 349 32 32 15 356 359 356 328 324 340 336 357 30 15 358 348 335 324 310 311 307 304 298 281 292 300 303
12 28 13 204 326 223 237 274 62 52 24 13 2 14 28 39 26 16 15 13 9 9 4 4 357 336 346 335 327 326 339 0 346 355 2 347 322 311 317 309 307 294 293 286 282 276 277 275 282